(276197) = 2002 QF28 = 2007 CG43

Discovered at Palomar on 2002-08-28 by NEAT.

Orbit

Orbit type: Main Belt

Note: WebGL enabled browser required.

epoch2024-03-31.0
epoch JD2460400.5
perihelion date2022-08-20.35638
perihelion JD2459811.85639
argument of perihelion (°)214.40931
ascending node (°)160.33728
inclination (°)8.09563
eccentricity0.1252615
perihelion distance (AU)1.9342814
Tisserand w.r.t. Jupiter3.6
ΔV w.r.t. Earth (km/sec)8.9
semimajor axis (AU)2.2112682
mean anomaly (°)176.43891
mean daily motion (°/day)0.29973810
aphelion distance (AU)2.488
period (years)3.29
P-vector [x]0.96516617
P-vector [y]0.26032971
P-vector [z]0.02612849
Q-vector [x]-0.25731086
Q-vector [y]0.92637314
Q-vector [z]0.27499804
absolute magnitude17.34
phase slope0.15
uncertainty0
referenceE2024-GJ9
observations used425
oppositions14
arc length (days)7898
first opposition used2002
last opposition used2024
residual rms (arc-secs)0.71
perturbers coarse indicatorM-v
perturbers precise indicator003Ek
first observation date used2002-08-28.0
last observation date used2024-04-12.0
computer nameMPCLINUX
JD of orbit computation2456731.483823
perihelion JD uncertainty (days)6.1093E-05
argument of perihelion uncertainty (°)4.4992E-05
ascending node uncertainty (°)4.1219E-05
inclination uncertainty (°)7.3148E-06
eccentricity uncertainty 8.8965E-08
perihelion distance uncertainty (AU)1.9033E-07
Minimum Orbit Intersection Distances (in AU)
for orbit epoch: 2460400.5, reference: E2024-GJ9
Mercury1.58065
Venus1.20899
Earth0.93939
Mars0.53381
Jupiter2.96921
Saturn6.85297
Uranus15.9821
Neptune27.872

Observations

421 total observations over interval: 2002 08 28.45618 – 2024 01 15.537137
These data are available for download (format description).

Date (UT) J2000 RA J2000 Dec Magn Location Ref
2002 08 28.45618 23 05 57.87 -05 38 42.7 19.0   644 – Palomar Mountain/NEAT MPS 61505
2002 08 28.46728 23 05 57.36 -05 38 50.2 19.1   644 – Palomar Mountain/NEAT MPS 61505
2002 08 28.47790 23 05 56.89 -05 38 57.6 18.9   644 – Palomar Mountain/NEAT MPS 61505
2002 08 30.43013 23 04 31.66 -06 01 26.6 19.5   644 – Palomar Mountain/NEAT MPS 61505
2002 08 30.43997 23 04 31.20 -06 01 33.9 19.6   644 – Palomar Mountain/NEAT MPS 61505
2002 08 30.45077 23 04 30.70 -06 01 41.1 19.4   644 – Palomar Mountain/NEAT MPS 61505
2002 09 03.58955 23 01 21.49 -06 50 24.9 19.6   608 – Haleakala-AMOS MPS 61505
2002 09 03.60061 23 01 20.97 -06 50 32.8 19.4   608 – Haleakala-AMOS MPS 61505
2002 09 03.61178 23 01 20.42 -06 50 40.5 19.7   608 – Haleakala-AMOS MPS 61505
2002 09 05.27053 23 00 03.28 -07 10 27.7 19.6   704 – Lincoln Laboratory ETS, New Mexico MPS 61505
2002 09 05.28453 23 00 02.53 -07 10 36.5 19.8   704 – Lincoln Laboratory ETS, New Mexico MPS 61505
2002 09 05.29865 23 00 01.80 -07 10 47.9 19.9   704 – Lincoln Laboratory ETS, New Mexico MPS 61505
2002 09 07.26126 22 58 29.20 -07 34 12.3 18.4   704 – Lincoln Laboratory ETS, New Mexico MPS 61505
2002 09 07.27536 22 58 28.46 -07 34 22.0 19.0   704 – Lincoln Laboratory ETS, New Mexico MPS 61505
2002 09 07.30338 22 58 27.05 -07 34 42.2 18.9   704 – Lincoln Laboratory ETS, New Mexico MPS 61505
2002 09 07.31748 22 58 26.36 -07 34 52.1 19.3   704 – Lincoln Laboratory ETS, New Mexico MPS 61505
2002 09 08.42085 22 57 34.26 -07 47 58.7 19.4   608 – Haleakala-AMOS MPS 61505
2002 09 08.43146 22 57 33.74 -07 48 06.3 19.8   608 – Haleakala-AMOS MPS 61505
2002 09 08.44229 22 57 33.17 -07 48 14.1 19.5   608 – Haleakala-AMOS MPS 61505
2002 09 15.31620 22 52 16.60 -09 08 06.1 19.1   644 – Palomar Mountain/NEAT MPS 61505
2002 09 15.38603 22 52 13.30 -09 08 53.3 18.9   644 – Palomar Mountain/NEAT MPS 61505
2002 09 15.40829 22 52 12.28 -09 09 07.7 18.9   644 – Palomar Mountain/NEAT MPS 61505
2007 02 08.17575 08 05 26.46 +12 45 28.0 20.3 R 644 – Palomar Mountain/NEAT MPS 199585
2007 02 08.19659 08 05 25.32 +12 45 37.8 20.2 R 644 – Palomar Mountain/NEAT MPS 199585
2007 02 08.21882 08 05 24.12 +12 45 48.9 20.6 R 644 – Palomar Mountain/NEAT MPS 199585
2007 02 10.26255 08 03 38.77 +13 01 26.8 20.3 V G96 – Mt. Lemmon Survey MPS 199585
2007 02 10.26909 08 03 38.44 +13 01 29.8 20.2 V G96 – Mt. Lemmon Survey MPS 199585
2007 02 10.27560 08 03 38.08 +13 01 32.8 20.0 V G96 – Mt. Lemmon Survey MPS 199585
2007 02 10.28219 08 03 37.76 +13 01 35.7 20.3 V G96 – Mt. Lemmon Survey MPS 199585
2007 03 16.18946 07 52 44.11 +16 28 38.7 21.2 V G96 – Mt. Lemmon Survey MPS 204538
2007 03 16.19622 07 52 44.29 +16 28 40.5 20.3 V G96 – Mt. Lemmon Survey MPS 204538
2007 03 16.20293 07 52 44.32 +16 28 41.3 20.3 V G96 – Mt. Lemmon Survey MPS 204538
2007 03 16.20964 07 52 44.43 +16 28 44.1 20.2 V G96 – Mt. Lemmon Survey MPS 204538
2008 04 30.37369 16 41 26.08 -09 15 21.1 20.5 V G96 – Mt. Lemmon Survey MPS 251678
2008 04 30.38026 16 41 25.83 -09 15 18.6 20.8 V G96 – Mt. Lemmon Survey MPS 251678
2008 04 30.38677 16 41 25.58 -09 15 16.9 21.0 V G96 – Mt. Lemmon Survey MPS 251678
2008 04 30.39362 16 41 25.29 -09 15 14.8 21.0 V G96 – Mt. Lemmon Survey MPS 251678
2008 05 13.36267 16 31 33.42 -08 06 41.2 21.2 V G96 – Mt. Lemmon Survey MPS 251678
2008 05 13.36929 16 31 32.98 -08 06 39.3 20.6 V G96 – Mt. Lemmon Survey MPS 251678
2008 05 13.37601 16 31 32.59 -08 06 37.1 20.7 V G96 – Mt. Lemmon Survey MPS 251678
2008 05 13.38251 16 31 32.19 -08 06 35.5 21.3 V G96 – Mt. Lemmon Survey MPS 251678
2008 06 03.37886 16 10 32.96 -06 50 21.2 20.2 V 691 – Steward Observatory, Kitt Peak-Spacewatch MPS 251370
2008 06 03.39650 16 10 31.87 -06 50 19.1 20.3 V 691 – Steward Observatory, Kitt Peak-Spacewatch MPS 251370
2008 06 03.41412 16 10 30.78 -06 50 16.7 20.4 V 691 – Steward Observatory, Kitt Peak-Spacewatch MPS 251370
2008 06 08.32627 16 05 40.90 -06 42 18.8 20.6 V 691 – Steward Observatory, Kitt Peak-Spacewatch MPS 251370
2008 06 08.34390 16 05 39.77 -06 42 18.3 20.4 V 691 – Steward Observatory, Kitt Peak-Spacewatch MPS 251370
2008 06 08.36154 16 05 38.76 -06 42 16.9 20.1 V 691 – Steward Observatory, Kitt Peak-Spacewatch MPS 251370
2008 06 24.19011 15 52 57.33 -06 46 52.7   691 – Steward Observatory, Kitt Peak-Spacewatch MPS 251678
2008 06 24.21386 15 52 56.44 -06 46 55.3   691 – Steward Observatory, Kitt Peak-Spacewatch MPS 251678
2008 06 24.23760 15 52 55.49 -06 46 57.0   691 – Steward Observatory, Kitt Peak-Spacewatch MPS 251678
2008 07 01.19352 15 49 18.22 -07 03 05.4   691 – Steward Observatory, Kitt Peak-Spacewatch MPS 252021
2008 07 01.20934 15 49 17.78 -07 03 08.5   691 – Steward Observatory, Kitt Peak-Spacewatch MPS 252021
2008 07 01.22251 15 49 17.46 -07 03 10.0   691 – Steward Observatory, Kitt Peak-Spacewatch MPS 252021
2009 11 21.10368 05 27 19.93 +08 09 55.4 20.0 V A50 – Andrushivka Astronomical Observatory MPS 304797
2009 11 21.12161 05 27 19.03 +08 09 51.7 20.5 V A50 – Andrushivka Astronomical Observatory MPS 304797
2009 12 13.28722 05 04 36.75 +07 34 09.0 19.8   704 – Lincoln Laboratory ETS, New Mexico MPS 307237
2009 12 13.29996 05 04 35.91 +07 34 08.7 19.7   704 – Lincoln Laboratory ETS, New Mexico MPS 307237
2009 12 13.31303 05 04 35.11 +07 34 09.4 19.7   704 – Lincoln Laboratory ETS, New Mexico MPS 307237
2009 12 13.32576 05 04 34.27 +07 34 10.2 19.6   704 – Lincoln Laboratory ETS, New Mexico MPS 307237
2011 04 04.29492 14 17 13.97 -03 45 42.6 21.1 V 691 – Steward Observatory, Kitt Peak-Spacewatch MPS 377100
2011 04 04.31265 14 17 13.13 -03 45 34.0 20.9 V 691 – Steward Observatory, Kitt Peak-Spacewatch MPS 377100
2011 04 04.33037 14 17 12.31 -03 45 24.8 20.9 V 691 – Steward Observatory, Kitt Peak-Spacewatch MPS 377100
2011 04 23.94174 13 59 40.99 -01 06 55.2 20.2 R A50 – Andrushivka Astronomical Observatory MPS 381168
2011 04 23.96508 13 59 39.67 -01 06 42.8 20.2 R A50 – Andrushivka Astronomical Observatory MPS 381168
2011 04 23.98842 13 59 38.34 -01 06 30.3 20.4 R A50 – Andrushivka Astronomical Observatory MPS 381168
2011 05 03.25943 13 51 01.54 -00 05 05.4 20.6 V G96 – Mt. Lemmon Survey MPS 381168
2011 05 03.26688 13 51 01.15 -00 05 03.0 20.7 V G96 – Mt. Lemmon Survey MPS 381168
2011 05 03.27436 13 51 00.79 -00 05 00.0 20.6 V G96 – Mt. Lemmon Survey MPS 381168
2011 05 03.28183 13 51 00.32 -00 04 58.0 20.8 V G96 – Mt. Lemmon Survey MPS 381168
2012 09 11.29365 01 20 43.21 +01 44 05.4 19.7 G G45 – Space Surveillance Telescope, Atom Site MPS 1608799
2012 09 11.33038 01 20 42.48 +01 43 43.4 19.6 G G45 – Space Surveillance Telescope, Atom Site MPS 1608799
2012 09 11.39962 01 20 41.09 +01 43 01.7 20.0 G G45 – Space Surveillance Telescope, Atom Site MPS 1608799
2012 09 11.44161 01 20 40.28 +01 42 35.8 19.7 G G45 – Space Surveillance Telescope, Atom Site MPS 1608799
2012 09 14.41105 01 19 41.37 +01 11 59.4 19.2 V 703 – Catalina Sky Survey MPS 431800
2012 09 14.41775 01 19 41.23 +01 11 55.7 19.3 V 703 – Catalina Sky Survey MPS 431800
2012 09 14.42457 01 19 40.98 +01 11 52.1 19.1 V 703 – Catalina Sky Survey MPS 431800
2012 09 14.43141 01 19 40.83 +01 11 46.3 19.9 V 703 – Catalina Sky Survey MPS 431800
2012 09 15.31534 01 19 20.51 +01 02 22.4 19.3   704 – Lincoln Laboratory ETS, New Mexico MPS 433214
2012 09 15.34351 01 19 19.71 +01 02 04.7 19.4   704 – Lincoln Laboratory ETS, New Mexico MPS 433214
2012 09 15.35760 01 19 19.31 +01 01 55.9 19.5   704 – Lincoln Laboratory ETS, New Mexico MPS 433214
2012 09 15.37172 01 19 18.96 +01 01 46.0 19.7   704 – Lincoln Laboratory ETS, New Mexico MPS 433214
2012 09 21.35052 01 16 23.05 -00 04 38.3 18.7 V 703 – Catalina Sky Survey MPS 433214
2012 09 21.35552 01 16 22.94 -00 04 41.9 18.9 V 703 – Catalina Sky Survey MPS 433214
2012 09 21.36060 01 16 22.69 -00 04 45.3 18.9 V 703 – Catalina Sky Survey MPS 433214
2012 09 21.36567 01 16 22.51 -00 04 47.4 19.2 V 703 – Catalina Sky Survey MPS 433214
2012 10 05.31356 01 06 35.71 -02 45 36.4 18.2 V 703 – Catalina Sky Survey MPS 434880
2012 10 05.32088 01 06 35.35 -02 45 41.1 18.5 V 703 – Catalina Sky Survey MPS 434880
2012 10 05.32817 01 06 34.92 -02 45 46.6 18.7 V 703 – Catalina Sky Survey MPS 434880
2012 10 05.33549 01 06 34.74 -02 45 51.0 18.3 V 703 – Catalina Sky Survey MPS 434880
